GW5356 Weather Reports


time (UTC)temp
C
wind
direction
speed
KPH
gust
KPH
rain 1hr
cm
rain 24hr
cm
rain mn
cm
humidity
%
barometer
mb
20260505153055 -17 0.0 0.0 0.00 0.00 0.00 1016.1
20260505151552 21 235 3.2 12.9 0.00 0.00 0.00 51 1016.3
20260505130110 16 248 0.0 4.8 0.00 0.00 0.00 61 1015.9
20260505124611 16 81 0.0 1.6 0.00 0.00 0.00 61 1015.8
20260505123109 15 245 0.0 1.6 0.00 0.00 0.00 63 1015.6
20260505121556 14 237 0.0 1.6 0.00 0.00 0.00 66 1015.8
20260505120056 13 84 0.0 1.6 0.00 0.00 0.00 69 1015.5
20260505114600 -17 0.0 0.0 0.00 0.00 0.00 1015.6
20260505113055 10 0.0 1.6 0.00 0.00 0.00 76 1015.6
20260505111555 10 78 0.0 3.2 0.00 0.00 0.00 76 1015.5
20260505101607 10 0 0.0 1.6 0.00 0.00 0.00 74 1015.4
20260505100105 10 0 0.0 0.0 0.00 0.00 0.00 72 1015.4
20260505094556 11 0 0.0 1.6 0.00 0.00 0.00 71 1015.5
20260505093102 11 0 0.0 0.0 0.00 0.00 0.00 70 1015.3
20260505091555 11 0 0.0 1.6 0.00 0.00 0.00 69 1015.1
20260505090101 11 0 0.0 0.0 0.00 0.00 0.00 69 1015.0
20260505084605 11 0 0.0 1.6 0.00 0.00 0.00 67 1014.9
20260505083105 12 0 0.0 0.0 0.00 0.00 0.00 65 1014.6
20260505081624 12 33 0.0 1.6 0.00 0.00 0.00 64 1014.5
20260505080103 13 0 0.0 1.6 0.00 0.00 0.00 63 1014.4
20260505074559 13 0 0.0 3.2 0.00 0.00 0.00 62 1014.1
20260505073104 13 231 0.0 3.2 0.00 0.00 0.00 62 1014.1
20260505071557 13 288 0.0 1.6 0.00 0.00 0.00 62 1014.1
20260505070100 13 353 0.0 1.6 0.00 0.00 0.00 60 1014.1
20260505064553 13 0 0.0 1.6 0.00 0.00 0.00 59 1014.1
20260505063106 14 0 0.0 1.6 0.00 0.00 0.00 58 1014.1
20260505061557 14 0 0.0 1.6 0.00 0.00 0.00 56 1014.2
20260505060058 15 0 0.0 3.2 0.00 0.00 0.00 56 1014.2
20260505054554 15 0 0.0 3.2 0.00 0.00 0.00 55 1014.2
20260505053056 15 0 0.0 1.6 0.00 0.00 0.00 54 1014.3
20260505051556 15 342 0.0 1.6 0.00 0.00 0.00 54 1014.2
20260505050106 15 343 0.0 1.6 0.00 0.00 0.00 52 1014.2
20260505041554 15 0 0.0 1.6 0.00 0.00 0.00 54 1014.1
20260505040057 15 0 0.0 0.0 0.00 0.00 0.00 54 1014.3
20260505034553 15 0 0.0 0.0 0.00 0.00 0.00 53 1014.4
20260505033053 15 0 0.0 0.0 0.00 0.00 0.00 51 1014.5
20260505031554 16 0 0.0 0.0 0.00 0.00 0.00 49 1014.6
20260505030055 17 0 0.0 1.6 0.00 0.00 0.00 47 1014.7
20260505024554 16 0 0.0 0.0 0.00 0.00 0.00 49 1014.7
20260505023056 16 0 0.0 0.0 0.00 0.00 0.00 49 1014.6
20260505021554 17 0 0.0 0.0 0.00 0.00 0.00 47 1014.6
20260505020055 17 0 0.0 0.0 0.00 0.00 0.00 45 1014.5
20260505014558 18 0 0.0 0.0 0.00 0.00 0.00 44 1014.5
20260505013057 18 0.0 1.6 0.00 0.00 0.00 42 1014.1
20260505011554 19 0 0.0 1.6 0.00 0.00 0.00 40 1014.1
20260505010115 20 43 0.0 0.0 0.00 0.00 0.00 1013.9
20260505004552 -17 0.0 0.0 0.00 0.00 0.00 1013.7
20260505003054 20 0.0 1.6 0.00 0.00 0.00 37 1013.6
20260505001555 -17 80 0.0 0.0 0.00 0.00 0.00 1013.3
20260505000055 -17 0.0 0.0 0.00 0.00 0.00 1013.4
20260504234555 22 1.6 3.2 0.00 0.00 0.00 34 1013.3
20260504233056 22 304 1.6 8.0 0.00 0.00 0.00 34 1013.2
20260504231558 22 109 3.2 9.7 0.00 0.00 0.00 34 1013.1
20260504230056 23 333 4.8 12.9 0.00 0.00 0.00 33 1012.9
20260504224553 -17 319 1.6 4.8 0.00 0.00 0.00 34 1012.9
20260504223101 23 338 4.8 12.9 0.00 0.00 0.00 32 1012.8
20260504221603 23 213 3.2 9.7 0.00 0.00 0.00 32 1012.7
20260504220055 23 18 3.2 14.5 0.00 0.00 0.00 33 1012.9
20260504214600 -17 0.0 0.0 0.00 0.00 0.00 1013.0
20260504213103 -17 0.0 0.0 0.00 0.00 0.00 1012.9
20260504211553 -17 0.0 0.0 0.00 0.00 0.00 1012.9
20260504210052 23 203 1.6 1.6 0.00 0.00 0.00 1012.8
20260504204600 -17 0.0 0.0 0.00 0.00 0.00 1013.0
20260504203057 -17 0.0 0.0 0.00 0.00 0.00 1013.1
20260504201557 23 3.2 4.8 0.00 0.00 0.00 1013.4
20260504200053 23 339 3.2 6.4 0.00 0.00 0.00 1013.6
20260504194556 -17 0.0 0.0 0.00 0.00 0.00 1013.7
20260504193057 -17 1.6 3.2 0.00 0.00 0.00 1014.0
20260504191601 -17 3.2 6.4 0.00 0.00 0.00 34 1014.1
20260504190052 -17 0.0 0.0 0.00 0.00 0.00 1014.3
20260504184555 23 30 3.2 11.3 0.00 0.00 0.00 33 1014.4
20260504183053 -17 0.0 0.0 0.00 0.00 0.00 1014.6
20260504181552 23 42 4.8 9.7 0.00 0.00 0.00 1014.9
20260504180052 -17 0.0 0.0 0.00 0.00 0.00 1014.9
20260504174557 -17 0.0 0.0 0.00 0.00 0.00 1015.1
20260504173056 -17 0.0 0.0 0.00 0.00 0.00 1015.3
20260504171559 -17 0.0 0.0 0.00 0.00 0.00 1015.1